sat.trackr.live / text

‹ back to catalog

SES-14

NORAD 43175 · 2018-012B

PAYLOAD ACTIVE UNKNOWN

§ Identity

Operator
Country
SES
Launch date
2018-01-25
Launch site
FRGUI
Launch vehicle
Mass (kg)
RCS (m²)

Purposes: comms

External: N2YO · Heavens-Above · Gunter

§ Orbital elements

Epoch: 2026-05-24T22:22:58.146816Z

Period
1,436.10 min
Inclination
0.0274°
Eccentricity
0.0000990
Mean motion
1.00271473 rev/d
Perigee alt
35,782.5 km
Apogee alt
35,790.9 km
Semi-major
42,164.8 km
B*
0.0000e+0
RAAN
38.1976°
Arg perigee
16.2794°
Mean anomaly
116.2932°
Rev number
679

§ Raw data

SES-141 43175U 18012B   26144.93261744 -.00000282  00000+0  00000+0 0  99962 43175   0.0274  38.1976 0000990  16.2794 116.2932  1.00271473  6797

JSON: /api/v1/satellites/43175 · /tle

For live sub-satellite position, see the globe view (requires WebGL).

§ Visibility from observer

Set your observer location to see the next 7 days of passes ≥ 10°. The values pass through the URL so the page stays shareable.

No JS? Fill the form by hand. The geolocation button needs JavaScript.